Weather History for KVER - June, 2013

Change the Weather History Date:

Friday, June 28, 2013

  Actual Average Record
Temperature  
Mean Temperature 78 °F -  
Max Temperature 96 °F 86 °F 103 °F (2012)
Min Temperature 68 °F 65 °F 53 °F (1968)
Cooling Degree Days 13    
Growing Degree Days 28 (Base 50)    
Moisture  
Dew Point 60 °F    
Average Humidity 58    
Maximum Humidity 98    
Minimum Humidity 26    
Precipitation  
Precipitation 0.00 in - - ()
Sea Level Pressure  
Sea Level Pressure 29.85 in    
Wind  
Wind Speed 5 mph (WNW)    
Max Wind Speed 17 mph    
Max Gust Speed 25 mph    
Visibility 10 miles    
Events Rain , Thunderstorm    
Averages and records for this station are not official NWS values.
T = Trace of Precipitation, MM = Missing Value Source: NWS Daily Summary

Daily Weather History Graph

Daily Weather History Graph

Search for Another Location

Airport or City:

Trip Planner

Search our weather history database for the weather conditions in past years. The results will help you decide how hot, cold, wet, or windy it might be!

Date:

Astronomy

Jun. 28, 2013 Rise Set
Actual Time 5:47 AM CDT 8:40 PM CDT
Civil Twilight 5:15 AM CDT 9:12 PM CDT
Nautical Twilight 4:35 AM CDT 9:52 PM CDT
Astronomical Twilight 3:49 AM CDT 10:38 PM CDT
Moon No Moon Rise 11:52 AM CDT (6/28)
Length of Visible Light 15h 56m
Length of Day
14h 52m
Waning Gibbous, 66% of the Moon is Illuminated
Jun 28
Waning Gibbous
Jun 29
Last Quarter
Jul 8
New
Jul 15
First Quarter
Jul 22
Full

Hourly Weather History & Observations

Time (CDT) Temp. Heat Index Dew Point Humidity Pressure Visibility Wind Dir Wind Speed Gust Speed Precip Events Conditions
12:15 AM 74.7 °F - 72.1 °F 92% 29.87 in 10.0 mi Calm Calm - N/A   Overcast
12:35 AM 74.7 °F - 72.5 °F 93% 29.86 in 10.0 mi Calm Calm - N/A   Mostly Cloudy
12:55 AM 73.9 °F - 72.1 °F 94% 29.90 in 10.0 mi West 11.5 mph 20.7 mph N/A Thunderstorm Mostly Cloudy
1:15 AM 75.7 °F - 70.0 °F 82% 29.93 in 10.0 mi WSW 9.2 mph 12.7 mph N/A Rain , Thunderstorm Light Thunderstorms and Rain
1:35 AM 74.3 °F - 66.4 °F 76% 29.92 in 10.0 mi WSW 4.6 mph - N/A   Mostly Cloudy
1:55 AM 71.4 °F - 66.2 °F 84% 29.91 in 10.0 mi Calm Calm - N/A   Overcast
2:15 AM 70.3 °F - 67.1 °F 89% 29.91 in 10.0 mi Calm Calm - N/A   Overcast
2:35 AM 69.8 °F - 67.6 °F 93% 29.89 in 10.0 mi Calm Calm - N/A   Mostly Cloudy
2:55 AM 69.6 °F - 67.8 °F 94% 29.88 in 10.0 mi Calm Calm - N/A   Scattered Clouds
3:15 AM 69.4 °F - 68.0 °F 95% 29.88 in 10.0 mi Calm Calm - N/A   Clear
3:35 AM 69.1 °F - 68.0 °F 96% 29.87 in 10.0 mi Calm Calm - N/A   Clear
3:55 AM 68.7 °F - 68.0 °F 98% 29.87 in 10.0 mi Calm Calm - N/A   Clear
4:15 AM 68.5 °F - 67.6 °F 97% 29.87 in 10.0 mi Calm Calm - N/A   Clear
4:35 AM 68.9 °F - 67.8 °F 96% 29.88 in 10.0 mi Calm Calm - N/A   Clear
4:55 AM 68.5 °F - 67.5 °F 96% 29.88 in 10.0 mi Calm Calm - N/A   Clear
5:15 AM 68.0 °F - 67.3 °F 98% 29.88 in 10.0 mi Calm Calm - N/A   Clear
5:35 AM 68.4 °F - 67.8 °F 98% 29.89 in 10.0 mi Calm Calm - N/A   Clear
5:55 AM 69.4 °F - 68.0 °F 95% 29.89 in 10.0 mi West 3.5 mph - N/A   Clear
6:15 AM 69.8 °F - 68.0 °F 94% 29.89 in 10.0 mi West 3.5 mph - N/A   Clear
6:35 AM 70.0 °F - 68.2 °F 94% 29.89 in 10.0 mi WSW 3.5 mph - N/A   Clear
6:55 AM 70.2 °F - 68.4 °F 94% 29.89 in 10.0 mi Calm Calm - N/A   Clear
7:55 AM 73.9 °F - 70.2 °F 88% 29.89 in 10.0 mi WNW 3.5 mph - N/A   Clear
8:15 AM 75.7 °F - 70.0 °F 82% 29.89 in 10.0 mi Calm Calm - N/A   Clear
8:35 AM 76.8 °F - 68.7 °F 76% 29.89 in 10.0 mi West 6.9 mph - N/A   Clear
8:55 AM 77.5 °F - 67.5 °F 71% 29.89 in 10.0 mi WNW 8.1 mph - N/A   Clear
9:15 AM 79.0 °F - 67.1 °F 67% 29.88 in 10.0 mi NW 6.9 mph - N/A   Scattered Clouds
9:35 AM 79.7 °F - 67.5 °F 66% 29.88 in 10.0 mi West 8.1 mph - N/A   Mostly Cloudy
9:55 AM 80.1 °F 82.4 °F 67.5 °F 65% 29.88 in 10.0 mi West 5.8 mph - N/A   Mostly Cloudy
10:15 AM 80.4 °F 83.0 °F 67.8 °F 65% 29.88 in 10.0 mi West 5.8 mph - N/A   Scattered Clouds
10:35 AM 82.8 °F 84.9 °F 66.2 °F 57% 29.87 in 10.0 mi WNW 10.4 mph - N/A   Scattered Clouds
10:55 AM 83.5 °F 85.5 °F 65.7 °F 55% 29.87 in 10.0 mi West 11.5 mph 16.1 mph N/A   Scattered Clouds
11:15 AM 83.8 °F 86.0 °F 65.8 °F 55% 29.87 in 10.0 mi West 8.1 mph - N/A   Clear
11:35 AM 84.9 °F 86.3 °F 64.6 °F 50% 29.87 in 10.0 mi WNW 11.5 mph 17.3 mph N/A   Clear
11:55 AM 85.8 °F 85.9 °F 60.8 °F 43% 29.87 in 10.0 mi NNW 16.1 mph 20.7 mph N/A   Clear
12:15 PM 86.2 °F 85.6 °F 59.5 °F 40% 29.87 in 10.0 mi NW 11.5 mph 16.1 mph N/A   Clear
12:35 PM 86.7 °F 85.9 °F 58.1 °F 38% 29.87 in 10.0 mi NW 13.8 mph 19.6 mph N/A   Clear
12:55 PM 87.1 °F 85.7 °F 56.3 °F 35% 29.87 in 10.0 mi North 17.3 mph 20.7 mph N/A   Scattered Clouds
1:15 PM 86.9 °F 85.1 °F 54.3 °F 33% 29.87 in 10.0 mi NNW 13.8 mph 18.4 mph N/A   Scattered Clouds
1:35 PM 87.3 °F 85.1 °F 53.2 °F 31% 29.86 in 10.0 mi NNW 11.5 mph 18.4 mph N/A   Clear
1:55 PM 87.3 °F - 52.2 °F 30% 29.86 in 10.0 mi NNW 13.8 mph 20.7 mph N/A   Clear
2:15 PM 87.6 °F - 52.7 °F 30% 29.85 in 10.0 mi NNW 10.4 mph - N/A   Scattered Clouds
2:35 PM 87.4 °F - 52.9 °F 31% 29.85 in 10.0 mi WNW 12.7 mph 19.6 mph N/A   Scattered Clouds
2:55 PM 87.6 °F - 50.4 °F 28% 29.84 in 10.0 mi NW 13.8 mph 23.0 mph N/A   Clear
3:15 PM 87.8 °F - 50.5 °F 28% 29.84 in 10.0 mi NW 15.0 mph 20.7 mph N/A   Clear
3:35 PM 88.0 °F - 50.5 °F 28% 29.84 in 10.0 mi NW 17.3 mph 25.3 mph N/A   Clear
3:55 PM 87.8 °F - 48.7 °F 26% 29.83 in 10.0 mi North 12.7 mph - N/A   Clear
4:15 PM 87.8 °F - 50.2 °F 27% 29.83 in 10.0 mi NW 11.5 mph 19.6 mph N/A   Clear
4:35 PM 87.8 °F - 50.2 °F 27% 29.83 in 10.0 mi NW 13.8 mph 23.0 mph N/A   Scattered Clouds
4:55 PM 87.8 °F - 50.4 °F 27% 29.83 in 10.0 mi NW 13.8 mph 23.0 mph N/A   Clear
5:15 PM 87.6 °F - 50.4 °F 28% 29.82 in 10.0 mi NW 15.0 mph 20.7 mph N/A   Scattered Clouds
5:35 PM 87.6 °F - 50.7 °F 28% 29.82 in 10.0 mi NW 13.8 mph 19.6 mph N/A   Scattered Clouds
5:55 PM 87.1 °F - 50.5 °F 28% 29.82 in 10.0 mi NW 9.2 mph 19.6 mph N/A   Clear
6:15 PM 86.5 °F - 51.8 °F 30% 29.81 in 10.0 mi NW 10.4 mph 21.9 mph N/A   Clear
6:35 PM 86.0 °F - 51.6 °F 31% 29.81 in 10.0 mi NW 12.7 mph 18.4 mph N/A   Clear
6:55 PM 85.5 °F - 52.2 °F 32% 29.80 in 10.0 mi NW 8.1 mph 17.3 mph N/A   Clear
7:15 PM 84.7 °F - 52.7 °F 33% 29.80 in 10.0 mi NW 11.5 mph 18.4 mph N/A   Clear
7:35 PM 84.0 °F - 52.9 °F 34% 29.80 in 10.0 mi NW 6.9 mph - N/A   Clear
7:55 PM 82.8 °F 81.6 °F 53.2 °F 36% 29.80 in 10.0 mi WNW 5.8 mph - N/A   Clear
8:15 PM 81.7 °F 81.0 °F 53.6 °F 38% 29.81 in 10.0 mi WNW 4.6 mph - N/A   Clear
8:35 PM 80.4 °F 80.2 °F 53.8 °F 40% 29.80 in 10.0 mi WNW 4.6 mph - N/A   Scattered Clouds
8:55 PM 79.9 °F - 53.8 °F 40% 29.80 in 10.0 mi West 3.5 mph - N/A   Scattered Clouds
9:15 PM 79.0 °F - 54.1 °F 42% 29.80 in 10.0 mi West 4.6 mph - N/A   Scattered Clouds
9:35 PM 78.3 °F - 55.0 °F 45% 29.80 in 10.0 mi West 3.5 mph - N/A   Clear
9:55 PM 77.4 °F - 55.4 °F 47% 29.81 in 10.0 mi West 5.8 mph - N/A   Clear
10:15 PM 77.4 °F - 55.2 °F 46% 29.81 in 10.0 mi West 4.6 mph - N/A   Clear
10:35 PM 77.0 °F - 55.6 °F 47% 29.80 in 10.0 mi West 5.8 mph - N/A   Clear
10:55 PM 76.3 °F - 55.8 °F 49% 29.80 in 10.0 mi West 4.6 mph - N/A   Scattered Clouds
11:15 PM 75.9 °F - 56.1 °F 50% 29.80 in 10.0 mi West 5.8 mph - N/A   Clear
11:35 PM 75.6 °F - 56.3 °F 51% 29.80 in 10.0 mi WNW 4.6 mph - N/A   Clear
11:55 PM 75.0 °F - 56.5 °F 52% 29.79 in 10.0 mi WNW 5.8 mph - N/A   Clear